RH
9 9 8 8 9 15 19 22 24 22 21 20 18 19 20 19 20 17 11 7 4 3 2 2 3 2 3 3 5 6 6 5 5 6 6 5 4 5 5 5 4 4 3 2 2 3 4 4 4 5 7 9 10 11 12 11 11 11 11 12 13 16 17 17 19 23 29 33 33 33 33 29 22 15 12 10 9 7 7 6 5 7 8 11 16 21 23 23
9 8 7 9 12 17 21 24 23 21 20 19 17 19 20 18 15 9 6 4 3 2 2 3 3 3 4 4 6 7 6 5 5 5 4 3 3 5 5 4 4 3 2 2 2 2 2 3 3 5 5 8 10 12 13 14 15 14 14 14 14 15 15 17 21 25 29 30 31 30 26 17 10 8 8 8 8 7 7 7 7 8 9 12 18 21 22 23
8 8 8 11 15 20 23 23 21 19 20 19 17 18 17 12 7 4 4 3 2 2 2 2 3 4 5 5 6 7 7 4 4 4 2 3 4 4 4 4 3 2 2 2 2 2 2 2 3 4 5 7 9 11 12 13 14 15 16 16 16 17 18 19 22 25 26 26 25 22 16 12 10 8 7 7 8 8 8 9 10 12 13 15 19 21 23 25
8 10 12 15 19 21 22 21 19 20 21 18 16 15 12 6 3 3 2 2 2 2 3 3 4 5 5 6 5 7 7 4 3 2 1 3 3 3 3 3 3 3 3 2 3 2 2 3 3 4 4 6 7 9 12 13 13 14 16 17 16 16 16 17 21 22 18 17 15 12 14 18 17 11 8 9 10 11 11 9 11 15 17 19 21 23 25 26
11 14 17 19 21 22 21 19 20 22 20 15 13 11 6 3 2 2 2 3 3 3 4 5 6 6 5 5 4 4 6 5 2 2 2 2 3 3 2 2 3 3 3 3 3 3 3 3 3 3 3 4 5 6 10 11 11 13 13 14 14 13 15 18 18 16 13 13 14 15 21 24 20 15 12 12 13 15 13 10 11 12 17 22 24 25 27 27
13 17 20 21 21 21 19 19 21 20 15 10 8 4 2 2 3 3 4 4 4 5 5 6 6 5 5 4 3 2 3 4 2 2 2 3 3 3 2 3 3 3 3 3 3 3 3 3 3 4 4 4 5 6 8 8 8 12 11 8 9 11 18 18 13 15 18 18 19 22 25 24 20 18 16 14 16 17 14 14 14 12 15 23 28 29 30 30
14 19 20 21 20 19 19 20 20 14 9 6 3 1 2 3 3 5 6 6 6 6 6 6 5 4 4 3 2 2 3 3 2 3 3 3 3 3 3 3 3 3 4 4 4 4 4 4 4 4 4 4 6 7 6 7 6 7 7 7 10 14 22 20 13 18 21 18 18 20 21 21 21 20 17 15 19 18 15 17 17 15 16 23 32 34 34 35
14 18 20 20 19 18 19 19 14 7 4 2 1 2 3 4 5 6 6 6 6 6 6 6 4 3 3 3 3 3 3 3 3 3 3 3 3 3 4 3 4 4 4 5 5 5 5 5 4 5 5 5 7 6 5 6 5 7 9 11 14 14 18 17 13 17 18 15 13 15 17 21 24 19 14 16 20 17 15 18 18 18 19 23 33 39 41 41
13 17 19 18 17 18 18 14 7 3 2 2 2 3 5 6 6 5 4 4 5 6 5 4 3 2 2 3 3 3 3 3 3 3 4 4 4 4 4 5 5 5 5 6 6 6 6 6 6 6 6 6 7 6 7 7 8 10 11 11 12 14 18 17 16 18 16 13 11 13 17 23 25 16 12 18 20 17 17 20 21 22 23 26 35 42 46 46
12 15 16 16 16 15 11 5 2 1 2 2 4 5 6 6 5 3 3 3 3 4 3 3 3 2 3 3 3 3 3 4 4 5 5 5 5 5 6 6 6 6 6 7 7 7 7 7 7 7 6 7 8 7 8 10 12 11 10 11 11 16 23 23 22 20 15 11 10 12 14 18 19 12 14 19 19 19 22 24 25 26 28 31 37 44 49 51
11 13 15 14 12 8 3 2 2 2 3 4 6 7 7 6 4 3 2 2 3 3 3 3 3 3 4 4 3 3 4 5 5 5 6 6 6 6 6 7 7 7 7 7 8 8 7 7 8 8 7 6 6 7 9 13 15 14 15 15 11 15 23 26 24 17 12 10 11 13 12 14 13 12 17 20 21 25 26 27 28 30 34 37 41 47 52 55
13 12 11 8 5 2 1 2 3 3 5 6 7 7 6 5 3 3 3 3 3 3 3 3 3 4 4 4 3 4 5 5 6 6 7 6 7 7 7 7 7 7 7 8 9 8 8 8 8 8 6 6 6 8 12 15 16 18 21 17 12 17 24 24 21 15 13 16 16 16 15 14 15 16 19 21 25 29 28 29 32 36 40 43 46 52 56 59
10 7 4 2 2 2 3 3 4 6 7 7 5 4 4 4 3 3 4 4 4 4 4 4 3 4 4 4 4 5 6 6 7 7 7 7 7 7 7 7 7 8 8 7 9 9 9 9 9 7 6 6 5 7 12 13 14 20 25 19 13 16 16 14 14 14 16 19 21 20 17 16 18 19 21 24 27 30 32 36 41 44 47 49 53 58 62 62
4 2 2 2 3 3 4 5 6 7 7 5 4 3 3 3 4 4 4 4 5 5 5 5 4 4 5 6 6 7 7 7 8 7 7 7 7 7 7 7 7 8 7 7 9 10 10 10 9 7 6 6 5 7 9 11 19 26 24 17 12 10 8 8 12 14 16 20 22 19 17 16 18 21 23 25 28 31 38 44 48 52 53 56 60 63 66 63
2 3 3 4 4 5 6 7 7 7 6 5 4 3 3 4 4 4 4 4 5 5 6 6 6 5 6 7 7 8 8 8 8 8 8 8 8 8 7 7 8 8 7 8 9 10 10 9 8 7 6 6 6 6 6 10 20 23 15 10 9 9 9 10 12 14 14 17 18 17 16 15 18 22 23 27 32 34 41 49 54 57 60 63 64 66 67 65
4 4 5 5 6 7 7 7 5 5 5 4 4 4 4 4 4 4 4 4 5 5 6 8 7 7 7 8 9 9 9 9 9 9 9 8 8 8 7 8 8 8 8 9 10 11 11 9 9 8 8 8 7 7 8 10 14 13 9 9 10 9 10 11 12 13 13 15 16 17 18 18 21 21 22 30 34 36 45 54 60 62 65 66 67 68 69 68
6 7 7 7 8 8 7 5 4 4 4 4 4 4 4 4 4 4 4 4 5 6 7 9 10 9 9 9 9 9 9 10 10 10 9 9 9 8 8 9 9 9 9 10 11 12 12 11 10 10 9 9 9 10 10 10 11 10 10 11 10 11 13 12 12 13 15 17 17 18 21 22 23 22 26 33 34 40 52 61 64 66 68 68 69 70 70 70
9 9 9 9 9 7 5 5 4 4 4 4 4 4 4 4 4 5 5 6 6 7 8 9 11 11 10 10 10 10 10 11 11 11 10 10 10 9 9 11 11 10 10 12 12 12 13 12 12 11 11 11 11 12 12 12 12 12 13 12 11 13 14 13 13 15 17 18 19 21 22 22 24 26 31 33 33 44 59 66 68 68 68 68 69 70 71 72
11 10 9 8 7 6 5 5 5 5 4 4 4 4 5 5 6 6 6 8 7 8 10 10 11 11 12 11 11 11 11 12 12 12 11 11 11 10 11 12 12 12 12 13 13 14 14 13 13 13 13 13 12 13 14 15 14 15 14 12 13 13 13 14 15 16 18 19 22 24 23 24 28 31 31 31 34 49 64 68 69 68 68 68 69 70 71 74
11 9 8 6 5 6 6 5 5 5 4 4 5 5 6 7 7 6 7 7 7 9 11 12 12 12 13 12 12 12 12 13 13 13 12 12 13 12 12 14 14 14 14 14 14 15 15 13 14 14 14 13 14 15 16 17 18 18 15 13 13 14 14 15 16 19 19 20 23 24 25 29 33 33 32 34 40 52 64 67 67 68 68 68 68 70 72 76
10 8 7 6 6 7 6 5 4 4 4 5 6 7 9 9 7 7 7 7 9 11 12 13 14 14 14 13 13 13 14 14 14 14 13 13 14 13 14 15 15 15 15 15 15 16 16 14 15 15 15 16 15 16 18 21 22 18 14 12 13 16 16 17 19 20 21 23 23 23 29 34 35 36 38 42 50 57 62 66 66 66 66 67 69 71 75 80
9 7 6 6 6 6 5 4 4 5 5 7 9 10 11 10 8 8 8 9 10 12 13 14 14 15 15 14 14 14 15 15 14 15 14 15 16 15 15 16 16 16 15 16 16 16 16 15 16 16 16 18 18 19 22 25 23 16 13 14 16 18 18 18 20 21 24 25 23 28 37 38 38 43 47 52 58 60 60 63 64 63 63 66 70 74 78 83
7 5 5 5 5 5 4 4 5 6 7 9 9 9 9 10 10 9 9 10 10 12 13 14 14 16 16 15 15 15 15 15 15 15 14 15 16 15 16 16 16 16 16 16 16 17 17 16 16 15 17 20 21 23 26 26 20 14 14 15 18 20 21 23 21 23 27 25 27 38 42 40 44 51 55 59 63 62 58 58 58 59 64 68 73 78 80 82
5 4 5 4 4 4 5 6 7 7 8 9 9 8 8 10 11 10 10 10 11 12 13 14 15 15 16 16 15 15 15 15 15 15 15 16 15 15 15 16 16 16 16 16 16 18 18 17 16 16 18 21 24 27 27 24 17 15 16 18 20 22 26 28 27 29 27 25 33 41 41 43 50 56 59 61 63 61 56 53 53 58 66 71 75 78 79 79
4 4 4 4 4 5 6 7 6 7 9 9 9 8 8 10 11 12 11 10 12 13 13 14 15 15 17 17 15 15 15 15 15 15 16 16 15 15 16 16 15 16 17 16 17 18 17 17 16 16 18 20 24 26 24 21 17 16 17 20 24 26 29 30 32 32 27 28 33 35 46 53 52 57 59 54 52 51 50 49 53 61 67 72 76 77 79 80
5 4 4 4 5 5 6 7 7 9 9 8 8 8 8 10 11 13 12 10 11 13 14 15 15 16 16 17 17 16 15 15 16 16 16 15 16 16 16 17 15 15 17 16 17 18 17 17 17 17 17 18 20 20 20 20 17 16 19 23 25 28 32 33 33 32 28 32 30 28 47 54 47 54 55 47 48 49 50 53 57 64 70 74 78 79 81 81
4 4 5 6 6 7 8 8 9 9 9 9 9 7 8 11 13 15 14 14 14 14 15 16 17 17 17 18 18 16 17 17 16 16 15 16 17 17 17 18 16 15 17 16 16 17 17 17 17 18 17 16 17 18 21 20 17 18 20 23 27 30 34 34 32 31 28 33 30 25 39 45 41 46 48 45 49 51 54 61 64 68 72 75 79 81 80 79
6 7 9 9 9 9 9 9 9 8 8 9 8 7 9 12 14 15 13 17 18 15 16 18 18 19 19 19 18 17 18 17 17 16 15 17 17 16 18 17 16 16 16 17 17 17 18 18 19 20 18 18 19 21 24 20 18 19 21 25 31 34 34 32 31 29 28 35 35 28 38 47 41 38 41 43 45 50 57 66 72 74 77 80 81 80 77 76
10 10 10 9 9 8 8 9 8 8 7 8 8 8 11 14 15 13 12 16 17 15 17 17 18 20 20 20 18 17 18 17 18 17 17 17 16 16 18 17 16 17 17 18 18 18 19 21 23 21 19 21 23 23 24 21 19 21 24 28 31 32 32 33 34 29 30 40 39 31 36 50 49 39 40 47 48 54 63 71 77 80 82 82 78 77 78 77
10 9 9 8 8 7 7 7 7 7 6 7 9 8 10 15 14 11 13 16 17 17 18 17 18 20 20 19 18 17 18 18 17 18 17 17 17 17 17 17 17 18 19 18 18 20 20 23 27 22 19 24 26 26 24 21 20 22 27 30 30 30 32 36 35 29 38 47 40 32 34 49 61 49 42 52 57 60 69 77 82 82 80 79 78 80 79 74
9 9 8 7 7 6 6 6 6 6 6 7 10 10 10 11 10 11 16 17 16 18 18 19 20 20 20 19 18 17 17 17 17 17 16 16 16 15 14 16 16 17 19 17 17 19 20 24 27 22 19 23 26 25 23 21 22 25 30 33 33 33 34 38 36 33 47 52 38 33 35 46 61 53 44 55 60 63 73 79 80 78 76 79 82 81 75 71
8 7 6 6 5 5 5 5 5 6 7 7 9 12 12 11 11 14 17 16 15 17 19 20 20 20 21 20 18 17 16 17 17 17 17 17 16 14 15 17 17 18 19 18 18 18 19 24 25 22 19 22 25 24 24 23 24 29 33 36 44 49 49 50 47 46 51 48 37 37 43 51 56 49 47 53 56 60 68 74 76 78 80 83 83 78 73 70
6 5 5 4 4 4 4 5 6 6 7 8 9 11 10 11 15 17 17 16 16 18 19 20 20 21 21 20 18 17 16 18 18 18 19 18 18 17 19 20 20 21 20 21 22 19 20 23 23 22 20 24 28 25 24 24 26 35 38 43 53 60 67 67 57 55 55 47 40 43 55 62 54 46 49 52 55 59 64 70 77 81 84 82 78 77 75 71
5 4 4 4 4 4 5 7 8 8 8 8 8 9 9 11 16 17 17 18 18 19 20 20 21 21 21 20 19 18 17 18 18 19 19 18 19 18 19 20 20 21 21 22 25 25 28 28 24 22 22 28 29 24 25 26 30 37 38 46 52 50 61 68 58 58 61 55 54 57 65 65 53 51 57 58 60 64 67 74 80 81 82 80 79 79 75 69
4 4 4 5 5 5 6 7 9 9 9 9 8 9 10 13 16 17 18 19 19 20 20 20 20 21 21 20 20 19 18 19 19 19 19 19 20 20 20 21 20 21 21 23 27 29 30 28 24 22 25 30 28 24 27 29 34 38 37 46 51 41 45 54 53 54 60 69 72 68 64 57 53 57 58 59 65 71 81 86 82 80 79 78 77 74 69 62
5 5 5 6 7 8 8 8 9 9 9 9 9 9 12 15 16 17 18 18 19 19 19 19 18 19 20 19 20 20 19 19 19 20 20 20 21 22 21 21 21 21 21 24 29 32 32 26 22 24 28 30 29 27 30 33 37 39 39 47 49 42 43 57 65 60 65 83 79 63 60 56 55 60 58 63 73 78 86 85 76 76 74 70 70 68 64 62
6 7 7 7 9 9 9 9 8 8 9 9 9 10 14 16 16 18 18 17 19 19 19 19 18 19 20 20 20 20 19 19 20 20 20 20 22 24 22 21 22 22 22 25 28 32 33 27 22 26 30 29 29 30 31 36 38 39 44 49 45 45 50 59 72 71 74 87 73 54 59 58 58 65 65 72 79 78 79 76 73 75 74 74 75 70 68 70
8 8 8 8 8 8 8 8 8 8 9 9 9 12 15 15 17 18 17 18 18 19 19 19 20 21 21 21 20 20 19 19 20 21 21 21 22 24 23 21 21 22 23 26 28 29 33 31 26 28 32 31 30 33 34 36 39 40 44 45 44 54 60 62 75 81 83 89 74 57 58 58 58 61 63 72 78 75 76 78 79 81 83 85 80 73 74 75
9 8 8 7 7 7 7 8 8 8 9 9 11 14 16 16 17 17 17 18 18 19 20 20 21 21 22 22 21 20 19 20 21 21 21 22 22 24 24 21 21 23 23 26 29 29 32 39 35 29 32 33 31 35 35 37 43 45 44 44 46 54 62 67 72 75 82 89 82 72 65 58 57 57 61 71 75 77 81 83 85 90 92 86 77 77 78 71
9 8 7 6 7 7 6 8 9 9 9 10 11 14 16 17 17 17 18 18 18 19 20 20 21 21 21 21 20 20 20 21 22 22 22 23 22 23 24 22 22 24 24 26 29 28 31 41 42 31 30 34 35 38 39 41 48 48 46 48 53 57 60 64 61 57 70 83 82 82 76 60 57 63 66 71 75 79 82 85 93 97 88 78 78 80 72 63
8 7 6 6 7 6 7 8 10 9 9 11 13 14 15 16 17 17 18 19 19 19 20 20 20 20 20 20 20 20 19 20 21 22 23 23 23 23 23 23 23 23 25 25 27 29 29 37 44 37 31 35 37 38 40 45 48 48 48 51 59 65 66 73 72 57 59 71 72 81 85 70 62 66 68 72 76 78 82 93 99 90 80 80 79 72 66 72
7 6 5 6 6 7 8 9 9 10 10 12 14 14 16 17 17 18 19 19 20 20 20 20 19 19 19 19 20 19 18 19 20 22 23 23 23 23 22 24 24 24 26 25 27 30 29 34 41 38 34 36 38 38 40 43 45 45 48 51 56 62 65 78 84 68 67 75 70 79 89 74 61 65 71 74 76 81 90 96 90 80 81 81 72 70 81 92
6 5 5 7 7 8 9 9 9 10 12 13 14 15 16 17 17 19 19 19 20 20 20 20 18 18 18 18 20 20 19 19 20 21 23 23 23 23 23 24 24 25 27 27 28 30 30 35 38 35 34 32 33 38 39 42 45 46 48 53 55 57 59 65 70 72 82 84 78 88 92 71 61 70 75 76 81 89 92 87 83 84 83 75 74 86 96 96
4 4 5 7 8 9 9 10 10 11 12 13 14 15 16 17 18 19 19 20 20 20 20 20 18 18 18 18 19 20 20 20 21 21 23 23 23 23 24 24 25 26 28 28 30 32 34 36 39 44 50 47 44 46 43 43 48 50 52 56 55 52 53 55 59 69 79 77 80 96 92 73 69 75 75 80 89 92 87 84 88 87 77 75 88 97 93 90
4 5 6 7 8 9 9 10 12 12 12 13 15 16 17 18 18 19 20 20 19 20 20 19 19 18 18 19 19 20 21 21 22 22 23 23 23 24 24 24 26 27 29 30 32 34 36 38 42 50 60 65 63 57 49 48 51 52 53 53 52 51 54 58 64 73 81 84 90 95 89 80 78 78 78 86 91 89 88 91 88 79 75 82 93 95 90 91
5 5 6 7 9 10 10 11 13 13 13 14 15 17 18 18 18 19 19 19 18 19 19 18 18 18 18 19 19 20 21 21 22 22 23 24 24 24 25 25 27 29 30 32 34 36 39 41 44 49 53 58 57 50 48 51 53 55 54 51 51 56 59 64 71 83 94 98 93 84 83 88 87 83 86 90 90 92 95 94 83 78 84 87 83 83 88 91
6 6 6 7 9 10 11 12 13 13 14 15 16 17 18 18 19 18 19 19 18 18 18 18 17 17 17 18 18 19 20 21 22 22 23 24 24 25 25 25 28 30 31 34 36 39 42 43 47 50 50 51 50 46 47 51 53 56 56 53 53 57 62 69 80 91 97 101 94 81 83 94 92 86 89 91 93 97 95 87 82 83 80 65 57 69 84 80
5 6 7 8 9 11 12 12 13 14 15 16 17 18 19 18 19 19 18 19 17 16 18 17 17 17 17 18 19 19 20 20 21 22 23 24 24 25 25 26 29 31 33 36 38 41 45 47 48 49 47 46 46 46 47 51 52 52 53 54 55 59 67 77 85 90 93 99 96 86 88 94 88 84 91 94 96 99 93 86 85 78 56 39 52 79 81 56
5 5 6 8 9 11 13 13 13 14 15 17 18 18 19 19 19 18 18 18 17 16 17 17 17 17 17 18 19 19 20 21 21 22 23 24 25 25 26 28 30 33 35 38 41 44 47 48 50 53 47 41 42 45 47 49 49 48 52 56 59 62 71 82 89 89 90 92 88 85 90 88 82 89 96 93 90 89 92 97 83 53 39 55 81 85 59 34
5 6 7 9 10 12 13 13 14 15 16 17 18 18 19 18 18 17 17 17 17 16 16 16 17 17 17 19 20 20 21 22 22 23 23 24 25 26 27 29 31 34 37 40 43 47 49 48 50 55 49 40 41 46 47 48 49 50 54 58 63 69 77 85 89 88 87 85 82 86 92 87 88 96 91 81 82 88 100 103 69 38 58 92 90 66 53 57
5 6 8 10 11 12 13 13 14 15 17 18 18 18 18 17 17 17 16 16 15 15 16 16 16 17 18 19 20 21 22 22 23 23 24 25 26 27 28 30 32 35 38 41 45 47 49 48 49 53 51 44 43 47 49 49 49 51 58 66 74 84 90 91 90 86 82 81 85 93 96 94 96 92 79 73 83 99 104 79 45 52 90 99 76 64 76 85
6 7 8 10 12 13 13 14 15 16 17 18 19 18 18 17 16 15 15 15 14 15 16 16 17 18 19 19 21 21 22 22 23 23 24 25 26 28 29 31 34 37 39 43 46 46 47 50 51 56 56 48 45 51 52 50 54 60 66 74 84 93 95 92 87 79 74 81 93 97 96 96 88 76 80 88 92 96 80 41 39 81 95 73 63 65 59 52
Wind_Speed
9 10 10 12 12 12 11 9 7 5 2 1 2 3 3 3 5 5 6 6 7 7 6 6 7 8 10 11 11 10 10 10 10 12 10 8 8 9 9 8 7 7 8 8 8 7 7 7 8 8 7 6 6 7 7 7 9 11 11 12 14 15 16 16 15 15 15 14 15 16 19 21 22 21 21 21 19 19 20 21 22 22 21 20 18 17 16 16
9 10 10 11 12 12 10 9 6 4 1 2 3 3 3 4 5 6 6 7 7 6 6 7 8 9 10 10 10 10 10 10 11 10 7 7 8 8 8 8 8 8 8 9 9 8 7 7 7 8 7 6 5 6 7 8 10 11 11 12 13 14 15 15 16 16 16 17 18 19 20 20 19 19 20 20 19 20 21 22 22 22 21 19 17 16 15 15
10 10 10 11 12 11 9 7 5 2 2 3 3 3 4 5 6 6 7 7 6 6 6 7 8 9 9 10 10 9 9 11 10 8 7 8 8 8 8 8 9 8 9 10 10 10 9 8 8 7 8 7 6 7 9 9 10 11 12 13 13 13 14 14 16 17 18 18 18 18 17 17 17 18 18 18 19 20 20 20 20 20 19 17 15 15 15 15
10 10 11 11 11 10 8 6 4 2 2 3 3 4 5 5 6 6 6 6 6 6 7 8 9 9 9 10 11 9 8 9 9 8 9 10 9 9 9 10 11 11 12 12 12 12 12 11 10 9 9 8 8 8 9 9 10 10 12 13 13 14 13 14 15 16 16 15 15 15 15 16 17 17 17 17 18 19 19 19 18 18 17 15 15 15 16 16
11 11 11 11 10 9 7 5 3 2 2 3 3 4 5 5 5 5 5 6 7 7 8 9 10 10 10 11 10 10 9 7 10 12 12 12 12 13 13 14 15 14 14 13 13 14 14 13 12 11 11 10 10 10 10 10 11 11 13 14 15 15 13 13 14 13 13 13 14 15 17 18 18 18 17 17 19 19 19 18 18 18 16 15 15 16 16 17
11 11 11 10 9 8 6 4 2 2 2 3 3 4 4 4 5 5 6 7 8 8 9 9 10 10 11 10 9 12 12 9 12 14 14 15 15 15 15 15 15 16 16 15 15 15 15 15 13 12 12 12 11 11 11 11 12 13 14 15 15 15 13 12 11 11 12 15 16 18 18 18 19 19 18 19 20 20 21 19 19 19 16 16 16 17 17 19
11 11 11 9 8 7 5 3 2 2 2 2 3 3 4 5 6 7 9 9 9 10 9 10 11 10 10 11 12 14 13 12 14 15 16 16 15 15 15 15 15 15 16 15 15 15 15 15 14 13 12 12 12 11 12 12 13 14 15 15 14 13 13 11 11 14 17 18 19 20 19 19 19 19 20 21 20 22 23 21 21 21 18 17 17 18 19 21
12 11 10 9 8 6 4 2 2 1 1 2 2 3 5 7 9 10 10 10 10 9 9 10 11 11 10 11 14 14 13 14 15 16 15 15 14 15 15 15 15 14 15 14 14 15 15 14 13 12 12 12 12 11 12 13 14 15 15 14 13 12 12 12 13 17 19 18 19 20 19 19 20 20 21 21 21 24 24 22 23 23 20 19 18 20 22 23
12 12 10 9 7 5 3 2 1 0 1 2 4 6 8 10 11 11 11 10 10 9 10 10 10 11 12 14 14 13 14 15 15 15 14 14 14 14 15 16 15 15 15 15 15 15 14 13 12 12 12 11 11 12 14 15 14 15 15 14 12 12 11 13 16 18 19 19 19 19 19 20 20 21 22 21 23 24 23 23 24 24 23 20 20 22 23 24
12 11 10 8 6 4 3 2 1 1 2 4 7 9 11 11 12 11 11 12 12 12 12 11 10 12 15 16 14 12 14 15 14 14 14 15 15 16 17 17 16 16 16 16 15 13 12 12 11 11 10 10 11 13 15 15 14 14 14 12 12 12 13 16 17 17 18 19 19 19 21 22 22 22 22 22 23 23 23 24 25 25 24 22 22 23 24 25
11 10 9 7 5 4 3 3 3 4 5 7 10 11 11 11 12 11 12 13 14 15 15 15 15 15 15 12 10 10 12 13 14 15 16 17 17 17 17 17 17 17 16 15 14 14 13 13 11 11 11 11 13 15 16 14 13 14 12 12 14 14 16 17 17 17 19 20 20 22 25 26 24 22 21 22 24 23 24 26 26 26 24 23 23 23 25 24
10 9 8 6 5 5 4 5 5 7 9 10 11 11 11 11 12 12 13 15 16 16 15 15 14 14 13 8 8 12 14 15 16 17 18 18 17 17 17 17 17 16 16 15 15 15 16 15 12 13 13 13 15 16 14 13 14 15 13 15 15 13 15 17 18 19 21 22 21 24 30 30 24 20 21 24 25 25 26 26 26 25 24 24 24 24 24 23
10 9 8 7 7 7 7 7 8 10 11 12 13 13 13 13 12 13 15 16 16 14 13 12 10 11 11 11 13 16 16 17 19 19 18 18 17 17 17 17 17 17 17 17 16 16 17 15 14 15 14 14 16 14 12 13 15 16 15 16 15 13 13 16 19 21 21 22 21 25 34 33 24 21 23 25 25 25 24 23 22 23 23 24 24 23 22 24
11 10 9 9 9 9 9 10 12 12 13 14 14 15 14 14 14 15 17 16 15 12 10 9 9 11 12 14 18 18 18 18 18 18 18 17 17 17 17 17 17 17 18 18 18 18 17 16 16 16 15 15 15 13 14 15 15 16 16 15 17 20 18 16 18 21 21 22 23 26 33 34 28 25 26 25 24 21 19 19 20 22 23 24 23 23 24 27
12 11 11 11 11 12 12 13 14 13 14 14 15 15 14 15 16 17 17 16 15 13 11 9 10 13 12 15 19 18 16 15 15 16 17 17 16 16 17 17 17 17 18 18 19 19 18 17 17 15 14 15 13 14 17 14 12 14 17 19 21 26 26 22 18 21 25 26 27 28 32 35 32 29 29 26 21 18 16 17 20 22 22 22 23 24 25 27
13 13 13 13 14 14 15 15 15 16 16 15 15 15 16 17 16 15 13 13 15 17 17 12 11 13 12 15 18 15 13 13 16 18 18 17 16 16 17 17 18 17 18 19 20 20 20 18 16 15 16 17 14 15 17 13 12 16 20 23 25 27 29 27 20 21 26 28 29 29 29 34 34 33 29 22 19 18 16 17 20 22 22 23 24 25 25 26
14 14 15 15 16 17 17 17 17 17 17 16 16 17 18 17 16 14 12 11 13 18 21 17 11 11 14 16 14 13 16 17 19 19 18 16 16 15 16 17 18 17 18 20 19 19 18 16 15 16 18 18 16 18 16 13 17 21 22 25 26 25 25 27 26 25 27 30 33 30 28 33 36 31 22 18 19 16 14 17 20 21 23 24 25 25 25 26
16 16 16 17 18 18 18 18 17 17 17 17 17 18 18 17 15 14 14 14 14 14 17 19 15 12 15 16 16 18 20 20 21 20 18 16 16 15 15 17 18 18 19 19 18 17 16 15 15 17 17 17 19 21 18 15 19 23 25 28 29 29 27 27 31 31 31 36 36 31 32 37 35 26 17 18 19 14 14 18 21 23 25 26 26 26 26 26
17 17 17 17 18 19 18 18 17 17 16 16 17 17 17 18 16 15 16 15 15 16 17 20 22 20 18 18 20 21 20 20 20 19 17 16 17 16 17 20 19 19 18 18 18 18 18 17 18 20 21 21 22 23 20 18 20 22 26 29 30 32 31 29 31 30 33 40 37 32 38 38 30 25 22 21 18 12 15 20 23 26 27 28 27 27 27 27
17 17 17 18 19 18 17 17 17 16 16 16 16 16 16 15 14 15 15 13 17 22 22 22 24 23 19 16 17 19 20 20 19 18 16 16 17 17 17 18 17 17 18 20 22 23 21 20 23 24 22 21 20 20 21 21 22 23 26 29 31 32 33 33 31 29 33 40 39 38 39 32 26 26 24 20 15 12 16 21 24 26 28 28 28 28 28 28
17 16 16 16 17 16 16 16 16 16 16 16 15 12 11 11 13 15 15 17 21 23 24 23 22 21 19 15 14 17 18 16 17 18 16 17 18 17 16 18 19 19 21 23 23 22 21 22 25 22 19 20 19 19 21 22 24 25 27 32 33 30 34 37 33 33 36 39 43 42 33 26 24 22 20 16 12 11 16 20 23 25 27 28 29 29 29 28
15 15 14 15 16 16 15 15 16 16 14 13 11 8 7 9 13 16 16 20 23 22 23 23 21 21 21 16 14 16 17 14 16 17 18 19 19 19 20 21 23 22 22 23 23 21 21 24 24 20 20 19 19 20 22 23 24 26 30 34 32 30 35 40 38 37 36 39 44 37 24 21 20 17 14 12 11 11 15 18 21 24 26 29 30 29 29 28
14 14 15 16 16 16 16 16 15 13 11 9 7 6 7 8 12 16 18 20 22 21 20 20 21 21 21 19 16 16 19 20 21 22 23 22 22 23 23 23 24 21 22 25 25 21 22 24 23 21 20 19 20 21 22 24 24 27 33 34 31 31 33 38 42 40 38 42 38 23 17 19 17 14 12 11 12 13 14 16 20 24 27 29 30 29 29 30
14 15 16 17 16 16 16 15 12 9 7 5 5 6 7 7 9 12 16 20 22 21 20 19 21 23 23 23 21 18 21 25 24 24 24 24 26 25 23 24 24 22 23 27 24 21 22 23 22 21 19 19 20 21 24 27 27 29 33 31 30 32 31 34 40 41 44 43 27 13 14 16 16 15 14 14 13 13 14 17 22 26 28 29 29 29 30 31
15 16 16 16 15 14 13 10 7 5 4 3 4 5 7 6 6 7 12 19 21 21 21 19 20 24 24 25 23 19 20 23 25 26 26 25 26 25 23 24 24 22 23 26 22 20 22 21 20 19 19 21 20 22 25 26 29 34 32 29 30 32 32 34 38 41 43 35 20 15 12 9 15 16 16 14 14 16 20 23 26 27 28 28 28 28 29 30
16 15 14 13 12 10 8 6 4 3 3 3 5 6 6 6 5 5 7 14 19 21 22 20 20 23 23 24 23 18 17 23 26 25 22 23 25 25 23 22 23 22 23 25 20 18 20 19 17 16 19 23 22 22 21 23 33 37 33 31 32 33 33 36 37 37 35 27 21 21 13 9 14 18 18 17 19 22 24 26 27 27 27 28 27 27 29 30
14 13 12 10 9 7 5 3 2 2 3 4 5 6 5 5 5 4 3 7 14 19 20 20 20 22 24 24 23 20 18 21 23 20 21 23 25 26 20 20 23 20 22 24 21 19 18 17 14 14 22 25 22 20 19 26 35 34 33 33 33 34 34 36 36 34 32 28 26 25 19 14 15 18 18 19 22 25 28 28 27 28 28 27 27 27 29 31
12 11 10 8 6 5 3 2 2 2 3 4 5 6 5 5 6 5 4 3 9 14 16 18 19 21 24 24 22 21 20 20 20 20 23 23 23 24 19 20 21 17 20 25 24 22 18 16 12 15 25 24 18 16 18 28 34 33 34 33 33 33 34 35 31 26 26 21 22 25 17 11 12 15 15 20 26 28 30 29 27 28 28 27 26 28 30 35
11 9 7 6 4 3 3 2 2 2 3 5 8 8 6 6 7 7 7 4 7 12 13 16 17 18 21 21 20 20 20 21 21 21 23 20 22 24 19 20 19 11 15 25 24 18 16 14 11 18 28 22 15 15 20 30 32 32 35 34 33 33 35 33 20 19 23 13 13 18 11 6 10 17 18 21 27 29 30 30 28 28 27 26 27 30 35 42
9 7 5 4 3 3 2 2 3 3 4 6 8 10 9 6 5 5 6 4 7 11 11 13 17 17 19 19 19 19 20 21 21 19 19 18 20 21 18 20 21 12 12 24 25 18 17 13 11 22 29 22 18 19 25 31 30 33 35 34 36 39 39 28 15 22 21 7 8 17 15 8 7 18 23 19 22 26 28 29 28 27 25 27 31 36 43 52
7 5 4 3 3 2 2 2 3 3 4 5 6 8 11 10 7 6 4 2 6 10 10 13 17 19 20 20 21 21 21 22 21 19 20 21 22 24 24 26 29 24 22 30 30 25 22 14 14 26 29 24 24 29 34 32 32 34 30 29 34 39 37 22 17 24 11 5 18 23 23 16 9 19 27 24 24 26 26 27 26 25 27 31 37 45 54 60
5 4 4 3 3 3 3 3 3 4 5 5 5 4 6 9 10 10 5 1 4 9 10 13 17 19 20 21 22 22 21 23 23 23 25 26 26 30 32 32 34 30 28 33 32 30 26 16 17 26 26 23 27 37 40 36 37 33 26 28 25 19 20 13 12 14 5 13 26 26 23 19 19 29 33 29 29 27 27 26 24 25 31 38 46 54 60 62
4 5 5 5 5 5 5 5 5 7 6 6 7 6 6 8 8 9 8 5 5 8 10 14 17 19 19 20 22 22 21 23 24 23 24 25 25 28 30 31 31 27 26 29 30 32 28 19 20 25 21 17 24 36 36 37 39 26 21 28 16 3 7 8 6 6 9 18 29 30 24 18 24 31 29 28 28 27 28 25 23 30 38 47 56 60 60 60
5 5 5 5 5 5 6 6 8 9 8 7 7 7 10 12 9 8 10 9 9 10 10 13 16 17 19 21 22 22 21 23 24 23 23 24 25 28 30 30 30 29 29 27 25 26 21 15 20 26 18 14 25 30 26 33 33 20 21 25 12 8 10 8 6 5 11 21 29 29 19 14 22 26 26 29 27 26 26 24 28 38 47 55 59 58 58 60
5 5 5 5 5 6 6 7 8 9 9 10 9 9 12 12 9 9 10 10 12 14 11 12 15 16 18 20 21 22 21 22 24 22 23 25 26 29 31 31 31 32 31 27 24 23 18 18 24 23 13 15 28 28 25 31 27 19 27 22 14 22 21 16 16 15 17 20 18 16 16 20 26 27 30 30 26 24 21 26 36 45 55 61 60 59 62 67
5 6 7 7 7 8 7 8 7 7 8 8 7 12 16 13 10 11 11 11 13 16 14 11 15 16 18 19 19 20 19 20 23 21 22 25 24 26 29 30 31 31 30 27 24 20 19 26 28 20 12 20 30 27 24 26 21 21 26 21 22 29 22 17 19 19 18 14 10 11 17 25 26 25 29 27 25 24 22 32 44 52 62 67 65 66 67 68
7 8 8 8 8 8 7 8 7 8 9 6 6 14 18 15 14 13 13 13 14 16 16 13 14 17 18 19 19 20 19 19 22 21 22 23 23 24 27 29 30 30 30 27 24 21 22 31 32 21 17 28 32 27 25 22 18 21 22 23 28 26 17 13 11 11 10 7 10 16 19 26 25 19 21 23 25 27 31 44 55 60 65 65 63 64 65 66
9 9 9 8 8 7 7 8 7 8 8 6 10 18 18 15 15 14 14 15 14 15 17 16 15 17 18 19 20 20 20 20 22 22 22 22 22 22 24 27 29 29 30 27 24 23 23 29 32 23 22 32 32 27 29 28 21 19 20 26 29 19 15 15 9 7 7 5 10 19 23 24 20 19 27 29 28 34 46 55 60 61 60 58 60 64 66 66
10 10 10 8 8 7 9 10 9 9 8 7 13 18 16 16 16 15 15 15 14 15 17 17 16 16 17 19 20 21 21 20 22 23 21 21 22 21 22 26 27 27 29 27 25 25 22 19 22 27 31 35 33 29 32 31 22 18 23 29 28 19 18 22 16 10 7 6 9 16 17 14 18 30 36 32 32 45 56 59 59 57 56 58 64 67 68 66
8 8 9 8 8 7 9 12 10 8 9 12 17 18 16 17 17 16 15 15 14 15 16 16 16 16 17 18 19 21 21 19 20 22 20 22 24 21 23 26 26 26 26 26 26 27 25 15 20 34 40 35 30 24 21 20 18 22 29 30 27 25 25 27 26 18 9 5 6 9 11 16 28 34 31 29 39 54 59 58 55 55 58 65 68 69 68 64
6 6 8 8 8 8 10 13 10 8 11 16 18 18 17 17 16 16 15 15 15 15 15 16 16 17 18 18 19 20 19 17 19 21 20 23 23 22 24 26 26 26 25 27 27 28 29 23 26 38 43 39 33 25 19 19 21 28 34 30 26 27 27 20 18 23 19 10 12 12 10 20 31 29 27 37 51 59 59 55 54 58 65 70 70 68 64 59
5 6 8 8 9 11 12 11 10 11 14 17 17 17 17 16 16 16 15 15 15 15 16 16 16 17 17 18 19 20 20 17 17 20 21 22 22 22 24 25 26 26 24 26 27 28 31 27 29 39 42 40 36 32 31 31 33 39 38 34 32 32 30 18 11 24 30 23 23 19 13 20 28 27 36 52 59 58 55 53 57 65 70 71 69 64 59 55
5 7 10 9 9 11 11 10 11 13 15 16 17 17 16 16 16 16 15 15 14 15 15 16 16 17 17 18 19 20 21 17 16 20 22 22 23 23 24 25 25 24 23 24 25 28 27 22 31 41 42 43 41 38 36 34 38 44 40 37 37 32 31 26 20 25 27 23 23 14 9 21 33 39 50 58 57 54 52 56 64 70 72 70 65 60 57 54
6 8 11 12 11 11 10 10 12 13 15 16 17 16 16 16 15 15 15 14 14 15 15 15 16 16 17 18 18 20 21 18 17 21 22 22 23 23 24 25 25 23 23 24 25 26 23 20 27 30 28 34 37 35 39 41 41 42 40 38 35 30 29 30 29 25 17 20 25 13 11 30 47 53 59 57 52 51 54 62 69 70 69 66 61 58 56 53
6 8 11 12 11 9 9 12 12 11 15 16 16 16 15 15 15 14 14 14 14 15 15 15 16 17 18 18 18 19 20 18 17 19 21 22 23 23 23 24 23 23 23 24 25 25 24 24 25 19 11 13 18 23 34 41 42 43 42 37 31 28 28 29 29 22 14 23 30 20 24 47 61 61 60 55 51 55 62 68 70 68 64 61 59 57 55 53
5 7 10 12 11 8 8 12 12 11 14 15 15 16 14 14 14 13 13 14 14 15 15 15 16 17 18 17 17 18 19 18 17 19 21 21 22 23 23 23 23 22 23 25 25 25 26 26 25 21 17 19 26 31 32 34 40 45 43 35 29 27 26 26 27 25 24 29 32 32 41 56 63 61 57 53 55 63 70 71 69 65 60 59 59 56 54 54
5 6 7 8 9 8 9 12 13 12 12 13 14 15 14 13 13 13 13 13 14 15 15 15 16 16 16 16 16 17 18 18 17 19 20 20 22 22 22 24 22 22 24 26 26 26 28 28 26 27 29 32 35 34 31 33 41 44 39 32 28 27 27 28 28 31 34 29 31 46 55 55 59 58 53 54 63 70 72 70 67 63 61 62 60 54 54 57
6 6 7 6 7 9 10 12 13 13 12 12 14 14 14 13 13 13 13 13 14 14 14 14 15 16 16 17 17 18 19 18 18 20 20 21 22 21 22 23 21 23 26 26 26 27 27 28 29 32 39 40 36 32 33 39 44 41 31 26 29 31 31 32 33 37 39 32 37 54 58 54 56 55 53 62 69 69 69 67 65 64 66 65 58 53 56 61
6 7 8 7 8 9 10 11 13 13 12 11 13 14 13 12 12 13 13 13 14 14 14 15 16 16 18 18 19 20 20 20 20 21 21 22 22 22 23 21 20 24 26 25 27 27 27 29 31 35 42 43 37 34 38 44 45 35 23 24 32 33 30 33 37 40 42 42 48 55 54 51 51 51 60 70 70 66 65 63 64 68 67 60 53 54 60 62
5 6 7 7 7 9 10 10 12 12 11 11 12 13 13 12 12 13 13 13 13 14 14 15 16 17 18 18 19 19 20 20 21 22 22 22 22 23 22 20 21 23 24 25 26 26 29 32 33 37 43 43 39 38 43 46 38 26 23 28 31 30 31 35 40 44 48 51 53 52 48 47 50 58 69 71 66 64 61 61 67 68 58 51 53 58 61 61
5 5 6 6 6 8 10 10 11 11 10 10 11 12 12 12 12 12 13 13 13 14 14 15 16 16 17 18 18 19 19 19 20 20 21 21 21 21 20 20 21 22 24 25 25 27 30 32 36 39 40 41 42 40 46 46 32 22 27 28 25 28 34 38 42 49 52 54 53 47 43 49 59 69 72 69 64 61 60 65 68 59 48 50 56 59 59 59
5 4 5 5 6 8 10 10 10 10 9 10 10 11 11 12 12 12 12 12 13 13 14 15 16 16 17 18 18 18 18 18 18 18 18 19 19 19 19 19 19 21 25 25 26 30 31 33 38 36 33 40 42 40 46 43 26 21 25 22 24 35 38 41 50 55 53 49 44 40 44 58 69 72 68 66 64 60 62 68 62 49 47 55 58 59 59 57
Wind_Direction
159 161 159 155 152 150 145 140 138 140 169 244 291 301 314 330 335 337 339 343 349 355 8 16 16 19 19 23 22 20 20 20 30 30 19 8 10 14 14 9 12 18 16 11 6 5 3 349 335 326 316 296 278 265 267 263 257 262 262 263 267 267 268 269 270 271 272 277 283 289 294 298 302 302 300 301 302 303 302 300 298 295 292 291 289 283 279 279
159 159 155 149 146 146 143 140 142 158 208 287 298 311 329 331 332 336 343 346 351 359 16 24 29 31 29 31 30 31 31 30 37 32 12 15 23 20 16 12 10 18 23 17 8 7 11 5 352 337 327 314 286 269 270 271 269 269 269 272 275 273 272 270 270 271 273 279 285 291 295 297 299 299 299 299 302 306 307 305 302 298 294 290 286 280 277 278
156 152 146 143 143 144 141 142 156 189 260 298 303 315 323 328 337 345 350 352 359 9 22 31 40 40 38 39 35 34 32 31 32 23 20 31 32 24 20 16 9 12 21 17 10 6 4 4 2 347 332 320 293 276 271 271 274 274 276 279 281 283 280 276 276 278 281 284 288 289 289 294 298 300 301 300 303 311 314 312 307 302 298 293 286 281 279 280
152 144 140 140 142 143 143 155 181 226 289 305 310 315 324 335 347 356 359 4 13 23 33 41 47 48 50 46 37 32 25 26 28 26 33 35 32 27 20 18 14 11 13 11 7 1 356 354 356 349 335 324 307 295 282 278 284 284 286 287 289 292 292 289 287 288 292 294 291 285 287 297 302 303 304 303 308 316 320 318 314 309 303 296 289 283 282 283
146 139 140 143 145 145 153 176 205 267 299 304 308 316 333 350 4 12 17 27 32 38 46 51 50 51 53 48 39 34 24 20 27 31 35 32 27 20 14 15 11 6 5 4 359 353 348 345 345 341 333 326 316 311 302 295 298 296 296 296 296 299 301 301 294 295 300 298 293 289 292 298 300 301 300 303 310 316 320 320 319 315 305 295 289 283 281 282
142 141 146 148 150 153 171 197 238 281 292 301 313 333 356 15 27 35 43 47 49 52 53 53 51 49 51 48 43 42 36 32 33 31 30 27 20 11 7 7 4 360 356 356 352 345 341 340 339 336 331 325 316 313 307 302 301 297 297 299 299 301 303 303 295 294 293 290 290 289 292 295 297 297 294 302 311 314 317 318 320 320 308 294 287 282 280 278
146 149 153 156 159 167 190 215 254 269 292 312 339 10 31 43 48 55 58 58 59 59 55 55 52 48 51 51 49 46 38 35 33 27 25 19 12 6 360 360 0 357 353 351 345 339 338 338 335 330 325 320 313 311 306 302 298 295 297 297 295 294 294 291 283 282 285 289 291 288 290 292 294 293 293 305 312 312 315 316 319 320 312 299 286 279 276 273
154 157 162 167 173 184 202 222 244 266 321 344 39 56 61 62 64 64 63 63 62 62 60 56 51 47 51 49 47 42 30 30 29 22 19 11 7 2 355 356 357 354 352 347 342 341 340 335 330 323 320 319 314 310 305 301 296 293 293 290 284 281 282 277 271 277 286 294 296 292 292 292 294 295 300 311 311 309 312 314 316 317 312 302 286 277 272 269
160 165 171 178 186 196 203 208 220 310 22 81 81 77 76 74 71 66 63 65 65 66 62 58 57 54 52 44 34 28 22 24 23 18 14 9 6 359 355 357 356 354 352 349 348 348 341 333 330 325 323 321 316 311 306 303 298 294 292 289 283 279 278 272 272 282 292 301 301 297 297 297 301 305 312 315 308 307 310 310 312 311 307 300 286 277 271 267
167 173 177 185 191 191 185 172 150 115 115 95 86 85 83 79 72 67 67 71 73 71 66 59 58 49 45 35 15 11 20 19 18 16 10 8 5 360 360 359 357 358 355 354 353 348 341 334 333 333 331 327 322 315 309 304 299 299 298 294 292 285 280 280 284 291 299 306 305 304 307 308 312 317 319 314 307 309 309 307 307 305 302 294 285 277 269 266
171 176 180 185 181 170 154 143 134 121 107 91 90 88 85 82 75 73 73 75 73 68 59 52 51 45 37 23 356 8 22 16 17 16 11 10 6 2 1 359 1 1 359 359 354 349 347 343 344 346 341 334 329 320 312 306 301 304 301 301 306 297 287 288 293 299 305 309 306 309 313 316 323 326 320 313 311 310 306 304 303 300 295 288 282 275 268 263
171 175 177 171 158 148 138 134 123 108 99 93 91 88 88 87 80 76 72 69 64 57 51 44 46 46 33 2 1 25 25 17 17 16 14 11 7 5 3 3 4 360 359 3 358 353 350 350 350 348 344 336 329 321 313 309 306 304 301 308 312 303 299 300 300 303 310 310 309 316 317 319 330 328 319 316 312 308 304 302 298 292 288 283 277 270 264 260
170 168 161 151 142 136 130 121 110 104 99 95 91 89 90 88 82 75 66 62 57 50 46 40 37 40 24 7 22 30 26 22 18 15 14 12 8 5 4 6 4 359 1 1 359 355 351 352 349 346 343 332 327 322 317 314 307 302 302 310 313 307 311 314 308 306 314 315 316 324 319 318 326 325 321 316 307 303 302 298 291 285 280 275 269 264 259 258
158 152 145 140 134 126 119 111 108 105 102 98 93 90 88 85 79 71 65 60 55 48 45 43 36 31 21 21 30 29 25 25 20 15 13 11 9 5 6 8 4 1 1 358 357 354 350 351 346 342 338 333 332 328 325 318 304 299 300 309 320 320 320 324 317 310 319 324 321 324 317 313 320 324 320 309 299 298 299 294 286 277 270 265 260 257 255 258
145 141 137 130 122 118 114 111 108 105 104 100 93 89 85 80 74 69 68 63 57 50 45 47 40 32 23 29 35 31 27 26 21 18 14 11 9 7 7 8 4 1 360 357 353 350 349 350 345 342 337 333 327 320 326 324 303 308 318 322 329 329 325 327 325 316 323 326 323 324 315 310 317 320 313 303 295 293 291 286 277 267 259 254 253 253 255 260
137 133 126 120 119 118 115 111 107 105 104 99 93 87 80 75 70 68 68 64 59 50 44 46 43 35 30 36 37 33 32 28 22 19 15 11 7 7 7 6 4 360 359 356 351 349 348 346 343 343 338 331 321 316 324 325 318 328 335 333 332 329 324 323 324 320 321 322 322 323 315 311 315 313 307 299 294 291 281 271 263 257 250 248 250 252 255 260
130 124 120 120 121 120 116 111 108 106 103 99 94 85 79 74 70 66 63 62 57 50 46 46 47 41 38 41 37 33 33 29 24 19 12 10 8 8 9 6 2 359 357 354 352 348 342 340 343 340 332 327 326 329 334 337 336 339 339 335 331 328 324 322 325 326 324 324 327 326 318 317 317 312 305 297 295 288 267 257 251 244 243 245 248 249 252 257
123 121 122 124 124 121 116 111 109 107 103 100 94 87 81 73 68 63 59 62 60 58 52 46 49 49 41 39 34 32 29 25 22 15 10 12 10 10 12 8 4 360 355 352 350 346 342 346 342 334 332 336 341 348 358 357 346 344 340 336 332 328 324 322 326 328 325 327 331 329 322 320 318 313 307 303 300 284 249 241 238 235 239 243 245 247 250 254
123 124 126 127 127 123 117 113 110 107 104 100 94 89 81 71 66 62 64 70 67 64 55 44 44 44 39 33 29 28 25 23 19 10 9 12 10 13 12 8 4 358 352 352 353 352 355 351 341 342 351 353 352 353 357 351 343 341 336 333 330 324 320 320 324 326 325 329 331 327 323 321 315 311 310 307 300 271 235 229 229 231 235 238 242 246 248 250
127 128 129 129 130 128 123 121 115 112 109 100 93 87 78 72 65 61 64 67 61 56 51 44 42 41 40 35 30 27 23 20 14 10 13 15 16 17 10 6 3 357 357 0 359 357 356 350 348 356 358 351 347 345 342 339 336 334 331 330 328 321 316 319 324 326 329 330 327 324 322 317 309 308 308 305 293 259 232 228 229 230 233 237 240 244 247 248
131 132 133 133 135 133 127 124 117 114 108 100 94 85 77 74 63 57 55 56 57 53 48 43 40 40 40 40 37 32 27 16 9 13 19 20 20 17 12 9 7 5 6 4 360 357 354 353 357 357 350 344 342 337 333 331 330 328 329 329 327 321 317 320 327 330 332 328 322 321 318 307 303 305 300 293 280 247 232 230 231 234 237 238 241 244 246 249
133 134 135 136 136 131 126 121 115 109 102 96 91 79 80 83 70 60 54 58 58 52 47 41 37 35 35 37 37 34 31 20 14 20 24 23 19 16 15 13 11 9 6 2 360 358 356 357 359 352 344 343 336 329 325 325 325 325 330 331 327 325 323 322 326 329 328 322 318 318 310 300 300 293 280 269 256 239 232 233 235 240 242 241 241 244 248 252
132 133 133 133 130 128 125 119 113 107 97 87 77 77 90 98 86 67 57 59 57 51 48 41 36 35 33 33 32 29 25 20 20 22 22 20 17 16 16 13 11 7 3 3 2 1 359 357 354 347 344 341 330 324 321 319 321 325 331 332 327 327 324 320 323 327 323 318 317 314 306 302 291 272 253 236 235 237 234 241 249 248 244 241 242 246 252 257
130 132 132 130 128 128 123 117 114 106 90 70 67 83 89 103 108 77 57 54 52 47 42 36 33 31 30 30 28 25 21 18 18 20 20 18 16 13 13 14 9 4 4 4 2 0 357 352 347 345 343 337 328 321 320 320 321 327 332 330 324 324 320 315 320 323 320 318 318 317 312 290 264 250 236 225 227 236 247 258 260 254 247 245 247 252 258 264
129 131 130 128 127 125 119 118 118 95 69 60 62 75 81 97 117 92 61 51 45 40 36 32 29 28 29 28 24 21 18 16 17 19 17 14 13 10 11 13 6 3 5 4 2 357 350 345 341 343 340 334 327 321 322 325 325 328 333 330 324 322 317 315 319 320 317 317 318 319 315 267 248 241 230 238 246 253 266 270 263 256 251 251 254 260 266 272
130 129 126 124 123 121 116 116 107 72 63 64 53 57 70 81 102 116 81 50 38 34 32 27 26 27 27 28 25 20 16 14 16 18 13 10 11 9 10 9 3 3 4 3 1 350 344 343 338 339 340 332 323 321 325 331 329 330 334 332 325 321 315 315 319 317 310 308 312 310 292 256 257 245 237 251 259 265 271 269 262 257 255 257 262 268 274 281
130 125 121 119 118 115 109 97 83 69 59 52 38 40 53 71 88 113 111 46 25 24 25 22 23 22 23 26 25 24 23 16 13 15 14 14 11 7 6 4 3 4 2 1 358 350 348 343 333 332 338 334 327 328 334 336 332 331 334 330 323 320 316 318 321 314 305 303 310 306 278 261 267 256 254 262 268 275 272 263 258 256 259 264 270 279 287 296
124 119 116 114 115 108 96 81 64 56 56 46 32 31 42 74 87 88 100 70 13 14 17 19 22 21 20 22 21 25 27 17 14 16 16 14 8 6 5 1 3 5 4 4 357 353 352 341 327 328 338 339 334 334 334 335 333 332 335 329 322 321 320 323 323 312 308 303 307 307 279 258 276 266 266 272 274 275 268 261 258 258 263 268 278 292 302 310
116 116 113 112 113 99 92 81 58 65 71 57 45 40 51 87 96 88 90 80 18 13 16 18 22 23 22 19 19 24 25 19 19 20 15 10 7 6 3 0 4 8 7 6 360 356 354 343 324 332 342 342 336 335 331 333 336 336 336 329 324 326 328 331 328 316 316 293 291 310 284 248 284 279 280 276 270 267 261 258 259 261 268 278 293 305 312 317
111 112 110 108 101 89 94 80 77 87 75 69 65 56 60 87 116 95 78 63 20 14 16 18 20 24 23 20 20 23 25 22 21 21 15 12 9 6 4 8 13 17 2 1 4 5 360 350 331 341 347 341 332 333 333 336 341 341 337 330 327 332 336 340 336 329 326 280 300 324 308 297 292 290 295 283 270 269 262 258 261 267 279 294 307 315 320 325
110 114 109 96 84 78 80 73 87 94 74 79 85 69 63 70 92 95 80 53 19 12 15 21 21 22 20 17 20 21 21 18 18 19 15 13 10 6 10 12 11 12 2 359 5 7 4 359 346 348 349 341 334 333 335 342 346 343 337 333 334 336 339 344 338 336 338 283 318 324 314 306 280 292 303 295 284 278 266 260 263 275 292 307 317 323 328 331
107 112 101 92 88 77 77 80 86 90 85 88 92 88 79 70 69 72 74 78 16 10 17 23 22 23 20 16 19 19 18 16 15 15 13 11 7 7 12 12 9 9 0 356 359 1 3 4 353 351 347 342 339 336 337 342 345 343 338 340 343 338 336 340 335 333 294 287 311 316 314 303 282 292 301 297 290 281 268 265 274 294 310 320 326 330 332 332
99 98 95 95 96 91 87 85 86 88 90 97 91 89 98 90 72 63 64 69 41 22 25 26 22 21 20 18 19 17 17 16 14 14 13 9 6 10 14 12 11 10 359 354 355 354 358 1 355 350 345 344 343 340 338 337 340 345 344 342 343 342 333 321 316 317 283 294 306 309 310 297 291 298 301 298 290 278 269 273 296 315 323 327 330 332 333 331
96 96 99 93 97 102 96 91 93 91 86 96 103 99 95 91 85 77 69 64 50 37 34 31 24 20 19 19 19 17 16 14 12 12 9 5 7 11 11 9 9 7 0 359 356 351 349 348 350 347 344 347 345 343 338 334 338 344 341 336 330 337 333 296 292 302 289 299 304 306 304 291 298 303 301 297 284 272 274 289 313 324 328 330 332 333 332 330
94 98 100 96 102 105 104 103 102 96 90 92 97 100 97 90 89 85 69 59 49 39 36 34 26 23 22 20 18 16 15 12 10 9 7 6 8 9 7 5 4 2 3 360 353 349 335 328 344 347 339 342 344 345 343 340 341 339 334 329 320 329 320 288 293 295 290 296 298 297 288 290 299 300 301 297 278 272 287 307 319 325 329 331 331 329 327 325
98 102 103 104 102 98 102 107 104 101 94 94 96 89 90 91 91 83 67 60 50 38 36 33 24 23 23 22 20 17 15 13 9 8 8 7 8 7 4 2 360 359 1 358 352 349 329 327 345 353 340 342 345 345 349 347 338 327 328 325 322 327 317 296 301 303 301 297 292 293 290 301 308 302 303 296 273 273 295 313 320 325 327 326 325 324 323 323
104 106 108 106 101 100 102 101 102 101 91 97 109 92 90 91 85 77 67 59 51 40 36 35 27 22 19 19 19 18 16 15 11 8 8 7 5 3 2 0 357 356 357 355 351 347 329 326 342 354 342 343 346 343 350 356 341 328 330 330 329 326 318 318 312 305 307 286 291 303 302 310 312 304 307 296 276 285 306 319 324 326 325 324 323 324 324 324
104 106 105 104 105 106 104 101 100 97 95 103 101 92 90 89 80 72 65 57 51 41 34 36 32 22 18 17 15 15 15 15 13 9 8 6 1 358 360 359 356 353 353 351 348 347 334 324 335 346 339 342 347 344 348 358 355 341 333 334 336 326 317 329 322 291 301 287 294 303 305 309 308 311 315 303 297 313 324 327 327 325 324 325 326 326 326 325
103 105 103 99 100 101 102 101 91 89 104 108 96 92 88 84 78 68 62 56 50 42 34 34 31 22 20 18 14 13 13 12 11 8 5 2 358 354 356 358 356 353 349 348 346 345 340 321 320 333 335 339 348 349 348 352 352 342 335 337 340 331 319 321 313 290 289 294 301 303 307 313 314 317 314 307 317 330 330 328 325 324 325 327 327 327 326 326
106 107 104 97 99 105 100 92 84 92 107 96 91 93 87 81 74 64 60 55 48 43 36 34 30 24 21 18 16 14 12 11 7 5 4 359 356 353 353 354 354 352 348 349 347 343 342 321 302 325 337 341 348 351 345 344 343 339 339 342 341 335 329 324 317 311 297 276 302 307 303 309 317 319 314 314 326 329 326 324 323 324 326 326 326 326 326 327
111 109 105 100 102 104 92 87 91 101 99 90 89 90 85 78 70 63 59 52 48 43 36 34 30 25 21 18 17 13 10 9 3 2 1 357 356 353 349 350 351 352 350 348 348 344 342 327 310 324 336 339 345 349 348 349 347 342 341 342 340 336 336 333 319 315 313 297 296 297 288 304 315 321 321 323 325 324 323 322 322 324 326 325 326 327 328 329
112 109 107 108 101 92 86 89 96 92 89 89 88 86 82 77 68 61 55 49 47 41 36 34 28 25 22 16 15 12 9 7 2 360 358 356 356 351 348 349 348 350 350 348 348 345 340 332 322 326 332 338 344 348 349 349 344 342 343 342 338 335 333 328 302 307 311 305 299 294 281 304 317 324 324 324 324 322 321 321 323 325 325 325 327 329 330 330
112 114 106 101 92 88 88 89 88 87 88 89 86 83 80 75 68 60 53 48 45 40 36 33 28 25 21 16 15 10 7 4 359 358 356 355 354 349 347 348 347 347 349 348 347 345 342 337 330 329 332 338 343 344 344 345 342 341 342 339 335 332 327 319 306 306 305 302 310 308 277 305 319 323 322 323 323 322 321 322 325 326 326 327 329 330 330 329
110 111 102 93 84 86 94 89 83 86 89 86 83 81 76 71 66 58 52 48 43 41 35 30 29 26 20 18 14 9 6 3 356 355 355 353 351 348 346 346 345 345 347 347 346 345 344 339 332 329 331 337 341 342 341 340 340 339 336 335 334 330 325 322 319 317 303 304 322 322 286 308 319 322 323 325 324 322 323 325 326 327 328 330 331 330 329 327
108 102 98 92 85 83 91 90 84 84 85 83 81 78 73 69 64 56 52 47 43 41 34 30 28 24 21 18 12 8 6 1 355 353 352 351 348 346 345 344 344 344 345 346 346 343 340 337 335 329 319 323 326 327 329 331 333 334 335 337 335 329 327 325 324 325 316 314 319 310 300 312 319 323 326 326 325 324 326 327 327 329 331 332 331 329 327 324
117 106 98 94 90 85 87 90 88 83 81 81 79 76 72 69 63 56 51 46 43 41 35 31 28 24 23 17 10 9 3 359 357 352 351 350 347 345 344 343 343 344 345 345 344 343 338 336 337 327 311 309 314 317 325 330 330 332 335 337 334 329 327 326 327 330 326 318 314 314 315 316 319 325 327 327 326 327 328 328 329 332 333 331 329 326 323 322
119 119 106 98 95 90 87 90 89 83 80 79 77 75 72 68 62 56 51 46 43 41 35 31 28 25 22 15 11 9 3 359 357 352 351 349 346 345 343 341 342 343 344 344 344 342 337 334 337 331 322 322 324 326 332 335 332 332 333 332 331 327 324 327 331 334 335 327 314 319 323 319 320 326 328 327 328 328 328 330 332 333 331 329 328 324 321 321
107 110 108 103 100 94 89 91 89 84 79 76 75 75 71 66 62 56 52 47 44 41 35 30 28 24 18 14 11 7 3 360 356 353 351 347 346 346 344 342 343 343 344 344 343 342 337 334 336 333 329 332 336 336 336 336 336 336 332 328 329 326 326 332 336 336 338 329 314 319 323 320 322 327 328 327 328 328 329 331 333 331 329 330 329 324 321 322
102 102 101 99 98 96 92 92 90 85 79 73 72 71 69 66 63 57 53 49 45 41 35 29 26 21 16 13 9 5 2 359 356 353 349 347 346 345 345 345 343 343 343 342 341 341 337 334 336 334 331 336 342 341 337 337 337 336 333 330 328 323 323 332 337 337 334 325 319 322 322 321 325 328 326 326 328 330 331 331 331 330 331 331 327 322 323 326
102 101 97 95 95 98 97 94 90 85 79 73 70 69 68 66 64 59 53 49 45 42 36 29 25 20 15 11 8 5 1 357 354 350 346 347 346 344 345 345 343 341 342 342 342 341 337 336 338 335 331 336 345 340 335 338 338 336 336 329 322 319 324 333 337 337 333 327 325 325 322 323 327 327 326 327 330 332 332 330 330 333 334 329 323 324 328 331
99 97 93 92 96 100 101 96 90 85 79 73 70 68 68 66 64 60 54 50 46 42 36 30 25 19 14 10 7 3 360 356 352 347 344 345 344 343 342 341 341 341 343 345 344 342 341 338 339 338 330 333 342 338 334 338 340 339 337 329 323 332 338 339 338 336 333 329 327 328 327 327 328 327 328 330 331 332 331 330 333 336 332 324 323 328 332 331
90 89 88 92 99 104 102 96 91 87 81 76 70 69 69 68 67 64 56 51 47 41 36 30 24 19 14 9 5 2 359 355 351 347 344 343 341 340 338 337 341 343 345 347 345 344 344 340 340 339 327 328 338 337 333 339 345 342 337 329 333 342 343 340 335 333 334 332 328 328 328 327 327 329 330 330 331 332 331 332 337 336 327 325 329 332 331 330